Regional Weather Roundup
Issued by NWS Little Rock, AR

Home | Current Version | Previous Version | Graphics & Text | Print | Product List | Glossary On
Versions: 1 2 3 4 5 6 7 8 9 10 11 12 13 14 15 16 17 18 19 20 21 22 23 24 25 26 27 28 29 30 31 32 33 34 35 36 37 38 39 40 41 42 43 44
000
ASUS44 KLZK 011705
RWRLZK

WEATHER ROUNDUP FOR ARKANSAS
NATIONAL WEATHER SERVICE LITTLE ROCK AR
1200 PM CDT SAT AUG 01 2015

NOTE: "FAIR" INDICATES FEW OR NO CLOUDS BELOW 12,000 FEET WITH NO
SIGNIFICANT WEATHER AND/OR OBSTRUCTIONS TO VISIBILITY.

ARZ001-003-010-029-011800-
NORTHWEST ARKANSAS

CITY           SKY/WX    TMP DP  RH WIND       PRES   REMARKS
FAYETTEVILLE   SUNNY     87  66  49 VRB6      30.10F HX  89
FORT SMITH     SUNNY     90  62  39 CALM      30.07S HX  90
HARRISON       SUNNY     87  66  49 CALM      30.12S HX  89
BENTONVILLE    SUNNY     88  63  42 SW5       30.12F HX  88
ROGERS         SUNNY     87  64  46 VRB3      30.12S HX  88
SILOAM SPGS    MOSUNNY   88  64  45 W3        30.10S HX  89
HIGHFILL       SUNNY     88  64  44 CALM      30.11S HX  89
SPRINGDALE     SUNNY     86  64  48 S5        30.13F HX  87
$$

ARZ004-005-016-011800-
NORTH CENTRAL ARKANSAS

CITY           SKY/WX    TMP DP  RH WIND       PRES   REMARKS
BATESVILLE     SUNNY     88  68  51 CALM      30.06F HX  91
FLIPPIN        SUNNY     88  64  45 SE3       30.07F HX  89
MTN HOME       SUNNY     86  68  54 VRB3      30.09S HX  89
$$

ARZ040-041-011800-
WEST CENTRAL ARKANSAS

CITY           SKY/WX    TMP DP  RH WIND       PRES   REMARKS
MENA           SUNNY     91  57  31 E6        30.11S HX  90
MOUNT IDA      SUNNY     91  61  36 VRB3      30.06F HX  91
$$

ARZ009-017-025-026-028-011800-
NORTHEAST ARKANSAS

CITY           SKY/WX    TMP DP  RH WIND       PRES   REMARKS
JONESBORO      SUNNY     90  66  45 NE6       30.04S HX  92
NEWPORT        SUNNY     89  70  53 NE3       30.06F HX  94
WALNUT RIDGE   SUNNY     90  64  43 N6        30.04F HX  91
BLYTHEVILLE    SUNNY     90  75  61 N6        30.03F HX 100
$$

ARZ022-023-033-042-044-011800-
CENTRAL ARKANSAS

CITY           SKY/WX    TMP DP  RH WIND       PRES   REMARKS
LITTLE ROCK    MOSUNNY   93  66  40 VRB5      30.05F HX  96
N LITTLE ROCK  MOSUNNY   95  64  36 E8        30.05F HX  96
JACKSONVILLE   SUNNY     93  60  33 VRB3      30.05F HX  92
SEARCY         SUNNY     92  64  39 CALM      30.06F HX  93
HOT SPRINGS    SUNNY     93  55  27 S8        30.06F HX  91
RUSSELLVILLE   SUNNY     91  65  41 CALM      30.06F HX  93
CLINTON        FAIR      90  68  48 CALM      30.08F HX  93
$$

ARZ036-011800-
EAST ARKANSAS

CITY           SKY/WX    TMP DP  RH WIND       PRES   REMARKS
WEST MEMPHIS   SUNNY     92  67  43 NE6       30.03F HX  95
$$

ARZ050-053-066-070-073-011800-
SOUTHWEST ARKANSAS

CITY           SKY/WX    TMP DP  RH WIND       PRES   REMARKS
ARKADELPHIA    FAIR      93  67  42 CALM      30.06F HX  96
CAMDEN         SUNNY     91  63  38 E7        30.04F HX  92
TEXARKANA      SUNNY     90  64  42 SE9       30.07S HX  91
EL DORADO      SUNNY     91  62  37 NE12      30.05F HX  91
DE QUEEN       SUNNY     90  66  45 SE9       30.06S HX  92
$$

ARZ056-057-069-011800-
SOUTHEAST ARKANSAS

CITY           SKY/WX    TMP DP  RH WIND       PRES   REMARKS
PINE BLUFF     SUNNY     91  67  44 E6        30.05F HX  94
STUTTGART      SUNNY     90  70  51 MISG      30.05F HX  95
MONTICELLO     SUNNY     91  66  43 NE10      30.04F HX  93

$$





USA.gov is the U.S. government's official web portal to all federal, state and local government web resources and services.